Date,TemperatureHighF,TemperatureAvgF,TemperatureLowF,DewpointHighF,DewpointAvgF,DewpointLowF,HumidityHigh,HumidityAvg,HumidityLow,PressureMaxIn,PressureMinIn,WindSpeedMaxMPH,WindSpeedAvgMPH,GustSpeedMaxMPH,PrecipitationSumIn
2013-9-1,92.7,66.7,42.4,43.8,34.1,24.5,84,38,9,30.12,29.88,15,4,15,0.00
2013-9-2,96.1,72.9,52.9,42.7,34.4,24.8,53,28,9,29.97,29.88,27,6,32,0.00
2013-9-3,81.7,71.5,57.4,44.8,37.7,29.6,49,30,21,30.09,29.94,16,6,17,0.00
2013-9-4,93.7,73.5,60.4,48.5,43.5,37.1,61,38,17,30.12,30.03,13,2,13,0.00
2013-9-5,95.9,70.4,51.6,61.4,47.5,39.3,86,50,16,30.06,29.94,181,5,181,0.04
2013-9-6,78.4,66.0,54.7,58.5,53.9,46.8,95,69,37,30.12,29.97,40,8,47,0.50
2013-9-7,71.1,61.8,56.3,57.9,55.5,51.4,98,81,54,30.15,30.06,25,7,25,0.95
2013-9-8,69.8,60.6,55.4,60.1,54.4,42.9,98,81,47,30.09,29.88,14,4,15,0.46
2013-9-9,77.4,64.1,54.5,53.2,46.6,37.5,94,58,24,30.00,29.88,20,8,23,0.33
2013-9-10,82.2,65.9,51.3,50.3,45.4,39.5,84,52,25,30.15,30.00,9,4,10,0.05
2013-9-11,81.9,64.8,48.7,50.1,42.4,34.1,92,52,20,30.33,30.15,13,3,93,0.05
2013-9-12,81.1,64.7,47.8,44.0,39.2,35.0,79,43,20,30.30,30.03,15,4,244,0.00
2013-9-13,88.2,66.4,46.2,49.8,43.2,37.6,86,49,19,30.03,29.82,15,3,15,0.00
2013-9-14,77.4,65.6,53.4,46.6,40.2,32.4,64,40,27,30.15,29.91,26,9,26,0.00
2013-9-15,79.5,62.3,42.8,46.8,38.0,30.8,75,43,23,30.18,29.88,19,6,21,0.00
2013-9-16,87.4,67.8,52.9,52.3,42.1,28.4,89,46,16,29.88,29.71,33,8,33,0.00
2013-9-17,75.9,63.4,48.4,41.6,34.9,30.9,54,36,21,29.85,29.65,16,5,17,0.00
2013-9-18,59.2,48.0,41.4,44.1,35.7,29.8,76,63,48,30.09,29.65,40,16,41,0.00
2013-9-19,70.3,50.3,34.0,38.1,32.3,27.4,97,56,23,30.18,30.06,16,4,16,0.00
2013-9-20,79.5,54.1,32.5,35.8,28.1,17.1,84,46,10,30.06,29.74,12,2,13,0.00
2013-9-21,71.2,53.7,36.0,36.7,31.5,25.4,77,46,22,29.74,29.62,26,5,57,0.00
2013-9-22,68.2,56.8,51.1,34.3,31.1,27.8,46,38,23,29.74,29.62,25,9,26,0.00
2013-9-23,63.7,53.8,44.6,31.9,28.8,25.2,55,39,24,29.91,29.68,35,15,35,0.00
2013-9-24,63.0,49.5,35.2,33.7,29.1,23.8,78,47,27,29.91,29.76,24,4,26,0.00
2013-9-25,49.6,44.7,40.6,40.5,36.2,31.0,86,72,50,29.97,29.79,22,6,24,0.04
2013-9-26,52.9,42.3,31.5,35.9,26.4,22.8,82,54,34,30.06,29.94,22,8,22,0.05
2013-9-27,61.9,43.2,24.3,28.4,24.0,20.1,88,53,21,30.03,29.82,27,8,27,0.05
2013-9-28,60.1,48.7,31.1,33.6,29.9,24.1,93,51,32,29.88,29.65,29,10,31,0.00
2013-9-29,58.5,52.1,40.1,34.8,27.6,21.4,59,39,28,29.68,29.44,47,17,50,0.05
2013-9-30,56.5,45.9,30.6,32.1,25.0,21.1,80,46,26,29.79,29.50,55,18,55,0.00